Theta_e
335 336 336 337 337 338 337 332 324 318 316 316 317 314 310 308 308 309 311 311 317 320 323 326 327 327 325 323 321 320 319 317 315 314 313 312 311 312 312 313 313 314 314
335 334 334 335 335 335 335 331 321 317 316 316 315 311 308 308 308 309 310 311 314 318 323 326 328 327 325 323 321 319 319 316 315 313 311 310 310 311 312 312 313 314 314
335 333 332 332 334 334 333 329 319 317 315 314 314 310 308 307 307 308 309 310 311 314 321 324 327 327 325 323 321 319 318 316 315 313 311 310 310 311 311 312 313 314 314
335 333 331 330 334 334 332 328 324 315 314 314 313 309 307 307 307 307 308 309 310 311 317 319 326 326 325 322 321 319 317 316 314 312 310 309 309 311 311 312 313 314 314
334 333 330 330 333 331 328 326 322 318 312 311 313 310 308 307 307 306 307 308 309 310 315 317 319 322 324 320 319 318 317 316 314 312 310 310 310 310 311 311 313 314 315
334 332 329 329 330 327 326 326 321 314 313 308 305 307 306 306 307 306 306 306 307 309 313 317 319 319 318 318 316 317 317 316 314 313 311 311 311 311 311 312 313 314 315
333 331 330 328 326 324 323 322 317 310 307 303 300 301 304 304 305 305 306 306 306 307 310 314 317 318 314 315 313 314 315 315 315 313 312 312 311 311 311 312 313 314 314
333 329 328 325 322 322 321 318 313 307 305 302 299 301 298 301 302 303 304 304 305 306 307 309 313 313 314 312 310 312 313 314 314 314 313 313 311 310 311 311 312 313 314
332 329 328 323 321 321 318 317 313 310 306 300 300 299 295 298 300 302 303 303 304 305 306 306 307 310 311 309 308 309 310 310 311 311 311 311 309 309 309 310 311 312 313
329 329 328 323 320 320 318 315 315 315 315 303 301 298 300 302 299 297 300 303 303 303 304 305 304 306 307 306 304 303 305 307 307 307 307 307 307 307 308 309 310 311 312
328 326 326 322 319 319 318 316 314 313 315 310 309 301 296 299 301 301 297 297 300 302 303 304 304 304 305 305 304 302 301 304 304 303 303 303 304 304 306 308 309 310 310
324 324 323 322 320 318 317 315 314 312 313 313 308 304 299 296 295 298 298 298 298 300 301 302 303 304 304 304 301 299 300 302 303 302 301 301 301 302 304 305 307 308 308
317 321 320 320 317 317 316 314 312 311 311 308 305 303 302 301 299 298 301 298 297 298 299 301 303 303 302 303 301 295 297 301 302 301 300 300 299 301 302 303 304 305 304
307 320 319 318 316 315 314 313 311 310 310 308 307 307 305 303 299 299 299 298 295 295 296 298 300 301 301 301 300 293 298 298 301 300 299 298 299 299 300 301 301 302 302
295 311 316 315 314 312 312 310 308 307 307 306 305 303 302 301 301 299 300 302 303 297 295 297 297 299 300 300 298 298 299 295 298 297 296 296 297 298 298 298 299 299 300
292 296 309 313 313 310 310 308 307 306 304 304 303 301 302 300 300 299 298 300 302 304 303 299 297 296 299 297 295 298 298 292 294 294 294 294 295 295 296 296 296 296 297
288 291 297 302 303 304 306 305 305 303 303 302 302 300 301 300 297 297 297 298 299 304 303 293 295 294 295 295 294 297 295 294 294 291 291 293 293 294 293 293 293 294 294
285 287 291 297 299 299 300 301 300 300 300 299 299 298 298 298 296 297 297 297 296 296 301 296 293 292 294 295 295 294 293 293 294 291 290 291 292 291 290 290 291 291 290
283 284 286 290 295 296 297 298 299 298 299 299 298 296 297 295 294 293 294 296 297 292 296 296 290 292 291 293 293 294 294 292 292 289 289 289 288 287 288 288 288 288 289
281 282 283 285 288 290 291 293 296 297 298 299 298 297 297 295 296 293 294 294 292 291 294 294 292 290 291 290 293 291 289 291 291 287 285 285 284 285 284 285 286 287 289
281 282 281 282 282 286 287 289 292 295 296 297 298 298 299 295 292 293 293 293 293 291 291 291 290 289 287 286 287 291 291 289 286 286 287 288 288 288 287 284 286 288 289
279 280 281 280 280 282 287 288 290 292 292 293 294 295 296 289 290 292 292 293 293 292 291 292 291 289 287 289 290 289 289 287 287 284 285 288 284 287 287 288 285 287 288
276 277 279 280 279 280 285 287 286 289 290 289 290 292 290 291 290 293 292 292 292 293 294 293 290 289 288 289 288 286 287 288 291 281 284 288 283 285 285 284 282 286 286
272 274 276 278 279 280 283 285 284 283 286 287 287 288 287 287 289 288 288 288 288 289 291 291 293 292 293 290 289 288 287 283 280 279 279 286 282 284 283 284 281 283 285
271 272 274 276 277 278 281 283 283 282 282 284 285 286 286 287 287 289 287 287 287 287 290 292 291 293 291 291 288 287 285 286 284 283 277 284 282 283 282 283 284 281 283
270 271 272 274 276 275 278 282 282 282 281 281 283 283 285 285 287 289 287 287 286 287 287 286 287 288 289 289 288 288 287 287 285 283 281 284 281 282 284 282 283 283 283
Wind_Speed
10 10 10 9 10 8 9 11 8 7 6 7 7 7 7 7 6 4 4 8 8 10 12 12 13 12 11 10 9 8 7 6 4 3 3 2 2 2 3 4 4 6 7
11 10 10 10 10 9 9 10 9 8 6 5 7 7 7 7 7 7 5 7 9 10 12 14 15 14 13 12 10 9 8 7 6 5 4 2 1 1 3 5 6 7 8
14 12 11 10 11 10 12 11 8 6 6 6 8 8 7 8 7 8 7 6 7 10 10 9 16 15 15 13 12 10 9 8 7 7 5 4 2 4 4 5 7 9 10
18 13 11 11 12 11 12 11 11 9 7 9 8 8 7 8 9 9 7 7 7 7 9 11 12 15 15 14 12 11 10 9 8 7 6 5 4 6 4 7 9 10 12
18 14 11 12 14 11 12 12 10 10 8 8 9 8 8 8 8 7 9 9 8 7 7 9 8 11 14 14 13 12 11 11 10 8 8 7 7 7 7 7 10 12 14
17 16 12 13 13 11 10 12 13 9 8 8 7 7 7 7 7 8 9 8 9 10 9 9 8 8 11 13 13 12 12 11 11 9 10 10 8 8 9 10 11 14 15
16 15 12 12 12 12 14 16 9 13 7 6 5 2 5 8 10 9 8 8 10 11 10 10 8 7 8 13 14 13 12 12 12 12 10 12 10 10 10 11 13 15 16
16 15 16 13 15 11 14 14 12 6 4 9 5 2 5 7 9 11 10 10 12 10 11 12 12 11 10 9 11 15 14 12 12 11 10 12 10 10 11 13 14 16 16
19 16 17 13 15 13 12 14 15 15 10 8 8 6 4 6 6 8 14 11 13 11 11 12 13 12 12 10 9 12 13 12 12 10 10 12 10 11 11 14 14 16 16
18 17 19 16 16 13 14 14 14 16 13 10 8 5 5 1 6 5 6 11 11 13 13 10 11 12 12 9 11 9 11 12 12 10 11 11 12 11 12 15 14 15 16
19 16 19 17 17 14 15 18 16 15 12 11 12 8 3 3 2 2 5 7 10 11 10 11 10 10 12 11 9 10 12 13 12 10 10 11 12 12 13 13 14 15 16
14 15 17 16 16 15 14 14 17 19 16 13 12 10 10 7 5 4 3 5 8 10 11 10 11 10 9 10 10 9 14 14 14 12 11 11 11 12 13 13 14 15 16
14 12 15 14 12 14 14 14 15 15 16 15 16 13 11 10 3 4 4 3 3 3 6 9 9 8 8 8 9 11 13 14 14 13 11 11 11 12 13 12 13 16 15
16 14 14 13 13 14 13 13 11 12 14 14 16 13 10 9 6 5 6 3 3 4 4 4 8 9 8 8 9 14 9 13 14 13 10 9 11 12 11 12 13 14 15
14 19 14 14 14 13 13 12 10 12 12 13 13 13 12 9 9 9 8 8 5 5 7 8 5 10 8 8 9 11 10 12 13 11 8 9 10 12 11 10 12 14 14
17 19 8 12 13 12 13 13 10 11 12 10 9 13 11 8 9 9 9 8 3 4 4 2 5 4 8 7 8 10 10 11 10 9 8 9 10 11 10 9 12 13 12
19 17 13 5 1 5 8 9 9 10 12 11 11 13 14 12 9 9 9 6 4 4 4 2 2 4 7 9 7 8 8 8 7 10 8 9 10 9 8 9 9 10 12
19 18 17 9 1 3 3 6 7 8 11 10 11 9 11 8 11 10 9 9 8 5 4 5 3 4 5 10 10 11 7 6 7 8 8 8 9 6 8 7 8 9 8
19 19 18 16 9 3 2 2 5 7 9 9 11 11 11 11 9 6 5 9 7 4 3 4 5 2 2 6 7 6 8 7 6 4 6 8 6 5 5 5 6 5 8
18 19 18 18 14 15 12 6 2 3 6 7 8 10 10 12 13 12 11 11 6 6 5 4 4 4 3 4 5 6 6 5 5 3 3 6 3 2 2 2 4 5 9
16 16 17 15 18 15 14 13 5 3 4 7 7 9 9 10 12 12 9 10 10 9 7 6 4 3 4 4 8 6 4 4 2 2 3 4 3 4 3 4 5 4 10
17 16 14 15 16 12 29 28 15 4 3 4 5 6 7 6 8 13 17 15 15 13 11 9 7 6 6 5 6 6 5 4 4 4 5 3 3 4 3 3 1 7 11
19 18 17 17 16 15 32 31 25 8 4 2 3 3 3 4 6 8 13 13 14 18 18 14 12 9 8 9 10 7 4 3 3 4 4 2 3 3 2 3 3 7 10
15 15 15 16 14 13 29 31 26 14 10 4 2 2 4 5 6 6 7 9 9 10 10 8 11 9 7 9 10 6 7 7 5 3 2 2 3 3 2 3 3 5 9
13 14 13 14 14 13 26 28 22 13 13 12 8 6 4 4 6 11 7 8 9 9 7 8 2 5 12 17 14 9 6 6 3 4 5 2 3 2 2 3 3 4 8
11 11 13 12 13 13 21 24 21 10 12 10 10 10 14 9 10 9 7 8 9 9 8 5 5 4 6 11 19 5 10 9 4 2 6 5 4 2 2 2 3 2 4
Wind_Direction
212 211 211 206 204 191 187 178 158 157 165 181 198 208 206 212 212 211 218 182 224 225 215 204 202 193 194 191 192 185 183 171 176 160 141 128 93 359 355 3 353 332 336
211 207 209 210 201 191 187 186 164 166 174 170 201 209 213 213 212 211 210 188 216 228 227 209 204 194 196 197 194 197 190 187 179 180 174 182 151 296 329 344 329 327 326
214 205 204 209 209 196 187 186 158 163 159 179 201 203 210 212 213 212 214 214 196 224 238 252 208 200 198 199 201 201 200 198 190 187 200 204 233 288 315 329 321 323 319
211 209 206 204 206 195 193 190 180 168 177 192 196 202 206 206 211 211 212 213 212 214 211 240 246 202 201 204 203 204 205 202 197 209 211 230 242 275 309 315 314 315 311
211 209 208 208 209 199 195 188 191 180 178 182 199 200 203 207 208 208 213 212 214 217 214 193 236 197 197 205 210 208 209 209 205 211 227 242 257 269 291 303 306 307 306
213 206 204 204 205 188 194 193 189 182 191 177 176 202 205 206 208 214 211 210 212 213 214 215 199 193 176 200 216 217 216 214 216 217 235 243 254 274 287 297 300 303 304
208 208 207 199 195 195 192 194 182 182 172 151 114 177 219 218 215 215 214 212 208 210 210 209 207 201 189 193 213 223 221 224 222 223 233 247 253 273 284 295 301 301 302
212 204 203 195 192 197 198 188 180 166 148 176 157 137 185 206 225 216 211 213 212 206 207 209 206 203 203 202 209 217 223 228 232 234 234 248 258 269 287 295 299 300 299
218 202 203 195 194 198 196 190 184 180 178 189 192 154 150 219 170 193 216 211 209 208 206 206 208 206 205 204 197 209 220 226 236 236 242 251 257 271 287 293 299 299 299
228 206 205 198 193 195 197 197 193 195 192 184 199 212 284 145 190 176 220 217 214 211 207 204 204 206 204 204 205 203 190 214 225 223 237 250 259 276 290 295 298 297 299
228 209 212 201 196 198 201 191 198 198 202 192 198 175 169 220 256 202 168 190 217 219 210 208 201 201 201 202 204 204 200 204 215 214 218 242 262 283 289 293 299 299 301
249 209 214 206 202 200 195 198 198 193 197 201 193 188 185 185 177 174 185 172 208 204 206 205 204 203 198 199 201 187 191 202 210 205 218 241 264 281 284 294 299 301 303
268 215 209 212 201 202 196 193 198 201 198 198 192 196 190 206 128 185 277 121 161 154 199 212 208 201 195 194 194 183 193 198 205 202 218 246 268 275 284 294 297 298 301
308 208 206 200 196 199 201 192 194 196 201 205 199 200 198 191 156 169 199 174 153 186 181 180 201 204 194 193 190 181 188 195 201 202 218 250 267 274 284 293 300 296 303
322 288 196 198 190 187 197 187 189 192 195 198 202 193 194 188 187 179 198 234 182 178 207 197 176 199 198 192 185 186 195 184 190 203 222 248 265 271 283 295 294 297 303
331 323 280 211 198 188 193 189 192 190 187 196 194 195 198 182 190 192 207 215 207 168 187 106 203 152 190 196 169 186 192 157 188 203 222 247 259 271 284 292 296 297 301
340 335 331 326 137 167 187 188 192 182 184 187 194 193 195 184 188 191 210 196 161 198 176 126 116 146 179 193 168 196 171 188 184 211 222 243 260 272 281 296 291 295 306
349 346 339 345 270 186 176 192 176 177 185 184 188 182 192 182 194 196 201 213 205 185 149 152 154 156 189 199 184 186 185 197 207 184 217 245 259 264 285 285 297 298 312
352 354 348 3 355 29 87 193 188 185 192 191 187 187 189 180 189 186 190 201 200 184 150 141 148 128 119 184 178 188 194 198 213 152 226 250 237 274 263 298 288 307 316
358 2 357 9 358 26 19 4 296 202 211 207 196 201 191 190 197 187 191 205 180 178 179 139 142 142 153 165 177 176 189 202 194 190 234 246 275 191 268 235 246 311 324
357 357 5 1 6 18 14 359 337 283 236 225 217 215 207 200 197 191 177 196 180 190 185 178 141 141 158 165 193 172 169 151 171 193 234 215 206 199 174 202 247 333 340
356 358 2 7 4 3 8 9 358 315 256 230 222 217 220 198 206 195 198 197 194 192 192 198 173 186 179 175 154 167 144 152 201 190 202 195 204 201 186 208 295 346 347
343 352 353 357 3 3 9 11 3 350 313 255 249 222 207 222 207 212 213 209 203 212 203 191 189 191 165 181 157 158 169 149 151 145 187 179 184 200 183 210 242 340 347
339 340 343 347 353 2 6 11 9 1 358 347 315 263 235 227 211 194 191 201 208 216 214 216 204 201 177 162 173 175 158 109 87 114 217 190 161 195 182 228 221 340 348
335 334 335 340 347 350 0 11 11 5 1 2 0 351 316 283 260 222 198 198 203 214 202 206 211 180 150 166 152 128 149 148 140 176 191 187 175 192 195 195 200 269 333
324 325 327 332 340 344 349 5 12 4 1 355 357 0 3 348 305 258 214 201 204 200 180 137 122 129 133 175 161 174 160 169 122 166 169 180 165 198 183 169 189 243 325